Time,TemperatureF,DewpointF,PressureIn,WindDirection,WindDirectionDegrees,WindSpeedMPH,WindSpeedGustMPH,Humidity,HourlyPrecipIn,Conditions,Clouds,dailyrainin,SoftwareType,DateUTC
2013-08-20 00:00:00,80.3,63.7,29.93,ESE,111,1.0,1.0,57,0.00,,---,0.00,VWS V14.01,2013-08-20 05:00:00,
2013-08-20 00:05:00,80.2,63.6,29.93,ESE,110,0.0,2.0,57,0.00,,---,0.00,VWS V14.01,2013-08-20 05:05:00,
2013-08-20 00:10:00,79.9,63.3,29.93,ESE,104,0.0,1.0,57,0.00,,---,0.00,VWS V14.01,2013-08-20 05:10:00,
2013-08-20 00:15:00,79.6,63.0,29.93,ESE,102,0.0,2.0,57,0.00,,---,0.00,VWS V14.01,2013-08-20 05:15:00,
2013-08-20 00:20:00,79.5,63.4,29.94,East,90,0.0,3.0,58,0.00,,---,0.00,VWS V14.01,2013-08-20 05:20:00,
2013-08-20 00:26:00,79.4,63.3,29.94,East,90,0.0,0.0,58,0.00,,---,0.00,VWS V14.01,2013-08-20 05:26:00,
2013-08-20 00:31:00,79.4,63.3,29.93,East,89,0.0,3.0,58,0.00,,---,0.00,VWS V14.01,2013-08-20 05:31:00,
2013-08-20 00:36:00,79.3,63.3,29.94,East,90,0.0,1.0,58,0.00,,---,0.00,VWS V14.01,2013-08-20 05:36:00,
2013-08-20 00:41:00,79.2,63.7,29.94,East,90,0.0,0.0,59,0.00,,---,0.00,VWS V14.01,2013-08-20 05:41:00,
2013-08-20 00:46:00,79.1,63.6,29.94,East,101,0.0,0.0,59,0.00,,---,0.00,VWS V14.01,2013-08-20 05:46:00,
2013-08-20 00:51:00,78.9,63.4,29.94,East,101,0.0,1.0,59,0.00,,---,0.00,VWS V14.01,2013-08-20 05:51:00,
2013-08-20 00:56:00,78.7,63.7,29.94,East,99,0.0,0.0,60,0.00,,---,0.00,VWS V14.01,2013-08-20 05:56:00,
2013-08-20 01:01:00,78.5,63.5,29.94,East,99,0.0,0.0,60,0.00,,---,0.00,VWS V14.01,2013-08-20 06:01:00,
2013-08-20 01:06:00,78.5,63.5,29.94,East,86,0.0,6.0,60,0.00,,---,0.00,VWS V14.01,2013-08-20 06:06:00,
2013-08-20 01:11:00,78.4,63.4,29.94,East,86,0.0,0.0,60,0.00,,---,0.00,VWS V14.01,2013-08-20 06:11:00,
2013-08-20 01:16:00,78.2,63.2,29.94,East,86,0.0,0.0,60,0.00,,---,0.00,VWS V14.01,2013-08-20 06:16:00,
2013-08-20 01:21:00,78.0,63.0,29.94,East,84,0.0,2.0,60,0.00,,---,0.00,VWS V14.01,2013-08-20 06:21:00,
2013-08-20 01:26:00,77.9,63.4,29.94,East,83,0.0,2.0,61,0.00,,---,0.00,VWS V14.01,2013-08-20 06:26:00,
2013-08-20 01:31:00,77.7,63.2,29.94,East,83,0.0,0.0,61,0.00,,---,0.00,VWS V14.01,2013-08-20 06:31:00,
2013-08-20 01:36:00,77.5,63.0,29.94,East,83,0.0,1.0,61,0.00,,---,0.00,VWS V14.01,2013-08-20 06:36:00,
2013-08-20 01:41:00,77.5,63.0,29.94,East,83,0.0,0.0,61,0.00,,---,0.00,VWS V14.01,2013-08-20 06:41:00,
2013-08-20 01:46:00,77.4,62.4,29.94,East,83,0.0,0.0,60,0.00,,---,0.00,VWS V14.01,2013-08-20 06:46:00,
2013-08-20 01:51:00,77.4,62.9,29.94,East,83,0.0,0.0,61,0.00,,---,0.00,VWS V14.01,2013-08-20 06:51:00,
2013-08-20 01:56:00,77.3,62.8,29.94,East,83,0.0,0.0,61,0.00,,---,0.00,VWS V14.01,2013-08-20 06:56:00,
2013-08-20 02:01:00,77.6,63.1,29.94,East,83,0.0,0.0,61,0.00,,---,0.00,VWS V14.01,2013-08-20 07:01:00,
2013-08-20 02:06:00,77.5,62.5,29.94,East,83,0.0,0.0,60,0.00,,---,0.00,VWS V14.01,2013-08-20 07:06:00,
2013-08-20 02:11:00,77.4,62.9,29.94,East,83,0.0,0.0,61,0.00,,---,0.00,VWS V14.01,2013-08-20 07:11:00,
2013-08-20 02:16:00,77.1,62.6,29.93,East,83,0.0,0.0,61,0.00,,---,0.00,VWS V14.01,2013-08-20 07:16:00,
2013-08-20 02:21:00,76.9,63.4,29.93,East,83,0.0,0.0,63,0.00,,---,0.00,VWS V14.01,2013-08-20 07:21:00,
2013-08-20 02:26:00,76.6,63.1,29.93,East,83,0.0,0.0,63,0.00,,---,0.00,VWS V14.01,2013-08-20 07:26:00,
2013-08-20 02:31:00,76.4,62.9,29.93,East,83,0.0,0.0,63,0.00,,---,0.00,VWS V14.01,2013-08-20 07:31:00,
2013-08-20 02:36:00,76.2,63.1,29.93,East,83,0.0,0.0,64,0.00,,---,0.00,VWS V14.01,2013-08-20 07:36:00,
2013-08-20 02:42:00,76.1,63.5,29.93,East,83,0.0,0.0,65,0.00,,---,0.00,VWS V14.01,2013-08-20 07:42:00,
2013-08-20 02:47:00,75.9,63.3,29.93,East,83,0.0,0.0,65,0.00,,---,0.00,VWS V14.01,2013-08-20 07:47:00,
2013-08-20 02:52:00,75.9,63.3,29.93,East,83,0.0,0.0,65,0.00,,---,0.00,VWS V14.01,2013-08-20 07:52:00,
2013-08-20 02:57:00,76.0,63.4,29.93,East,83,0.0,0.0,65,0.00,,---,0.00,VWS V14.01,2013-08-20 07:57:00,
2013-08-20 03:02:00,76.0,63.4,29.93,East,83,0.0,0.0,65,0.00,,---,0.00,VWS V14.01,2013-08-20 08:02:00,
2013-08-20 03:07:00,75.8,63.2,29.93,East,83,0.0,0.0,65,0.00,,---,0.00,VWS V14.01,2013-08-20 08:07:00,
2013-08-20 03:12:00,75.7,63.5,29.94,East,83,0.0,0.0,66,0.00,,---,0.00,VWS V14.01,2013-08-20 08:12:00,
2013-08-20 03:17:00,75.9,63.3,29.94,East,83,0.0,0.0,65,0.00,,---,0.00,VWS V14.01,2013-08-20 08:17:00,
2013-08-20 03:22:00,75.9,63.7,29.94,East,83,0.0,0.0,66,0.00,,---,0.00,VWS V14.01,2013-08-20 08:22:00,
2013-08-20 03:27:00,75.5,63.8,29.94,East,83,0.0,0.0,67,0.00,,---,0.00,VWS V14.01,2013-08-20 08:27:00,
2013-08-20 03:32:00,74.5,63.3,29.94,East,83,0.0,0.0,68,0.00,,---,0.00,VWS V14.01,2013-08-20 08:32:00,
2013-08-20 03:37:00,73.7,62.9,29.94,East,83,0.0,0.0,69,0.00,,---,0.00,VWS V14.01,2013-08-20 08:37:00,
2013-08-20 03:42:00,73.2,63.2,29.94,East,83,0.0,0.0,71,0.00,,---,0.00,VWS V14.01,2013-08-20 08:42:00,
2013-08-20 03:47:00,73.0,63.0,29.94,East,83,0.0,0.0,71,0.00,,---,0.00,VWS V14.01,2013-08-20 08:47:00,
2013-08-20 03:52:00,73.2,63.2,29.94,East,83,0.0,0.0,71,0.00,,---,0.00,VWS V14.01,2013-08-20 08:52:00,
2013-08-20 03:57:00,73.1,63.2,29.94,East,83,0.0,0.0,71,0.00,,---,0.00,VWS V14.01,2013-08-20 08:57:00,
2013-08-20 04:02:00,72.9,63.0,29.93,East,83,0.0,0.0,71,0.00,,---,0.00,VWS V14.01,2013-08-20 09:02:00,
2013-08-20 04:07:00,72.6,63.1,29.94,East,83,0.0,0.0,72,0.00,,---,0.00,VWS V14.01,2013-08-20 09:07:00,
2013-08-20 04:12:00,72.5,63.0,29.94,East,83,0.0,0.0,72,0.00,,---,0.00,VWS V14.01,2013-08-20 09:12:00,
2013-08-20 04:17:00,72.9,63.3,29.94,East,83,0.0,0.0,72,0.00,,---,0.00,VWS V14.01,2013-08-20 09:17:00,
2013-08-20 04:22:00,73.3,63.3,29.94,East,84,0.0,0.0,71,0.00,,---,0.00,VWS V14.01,2013-08-20 09:22:00,
2013-08-20 04:27:00,73.7,64.1,29.94,ESE,104,0.0,3.0,72,0.00,,---,0.00,VWS V14.01,2013-08-20 09:27:00,
2013-08-20 04:32:00,73.9,63.9,29.94,ESE,104,0.0,0.0,71,0.00,,---,0.00,VWS V14.01,2013-08-20 09:32:00,
2013-08-20 04:37:00,73.9,63.9,29.94,ESE,104,0.0,0.0,71,0.00,,---,0.00,VWS V14.01,2013-08-20 09:37:00,
2013-08-20 04:42:00,73.8,63.4,29.94,ESE,104,0.0,0.0,70,0.00,,---,0.00,VWS V14.01,2013-08-20 09:42:00,
2013-08-20 04:47:00,73.8,63.0,29.94,ESE,104,0.0,0.0,69,0.00,,---,0.00,VWS V14.01,2013-08-20 09:47:00,
2013-08-20 04:52:00,74.0,63.2,29.94,ESE,105,0.0,0.0,69,0.00,,---,0.00,VWS V14.01,2013-08-20 09:52:00,
2013-08-20 04:58:00,74.2,63.0,29.94,ESE,105,0.0,0.0,68,0.00,,---,0.00,VWS V14.01,2013-08-20 09:58:00,
2013-08-20 05:03:00,74.0,62.8,29.94,ESE,104,0.0,0.0,68,0.00,,---,0.00,VWS V14.01,2013-08-20 10:03:00,
2013-08-20 05:08:00,73.8,62.6,29.94,ESE,105,0.0,0.0,68,0.00,,---,0.00,VWS V14.01,2013-08-20 10:08:00,
2013-08-20 05:13:00,73.5,62.3,29.94,ESE,105,0.0,0.0,68,0.00,,---,0.00,VWS V14.01,2013-08-20 10:13:00,
2013-08-20 05:18:00,73.4,62.2,29.94,ESE,105,0.0,0.0,68,0.00,,---,0.00,VWS V14.01,2013-08-20 10:18:00,
2013-08-20 05:23:00,73.4,62.2,29.94,ESE,105,0.0,0.0,68,0.00,,---,0.00,VWS V14.01,2013-08-20 10:23:00,
2013-08-20 05:28:00,73.3,62.5,29.94,ESE,105,0.0,0.0,69,0.00,,---,0.00,VWS V14.01,2013-08-20 10:28:00,
2013-08-20 05:33:00,72.9,62.5,29.94,ESE,105,0.0,0.0,70,0.00,,---,0.00,VWS V14.01,2013-08-20 10:33:00,
2013-08-20 05:38:00,72.4,62.5,29.95,ESE,105,0.0,0.0,71,0.00,,---,0.00,VWS V14.01,2013-08-20 10:38:00,
2013-08-20 05:43:00,72.0,62.5,29.95,ESE,105,0.0,0.0,72,0.00,,---,0.00,VWS V14.01,2013-08-20 10:43:00,
2013-08-20 05:48:00,71.7,62.6,29.95,ESE,105,0.0,0.0,73,0.00,,---,0.00,VWS V14.01,2013-08-20 10:48:00,
2013-08-20 05:53:00,71.4,62.3,29.95,ESE,105,0.0,0.0,73,0.00,,---,0.00,VWS V14.01,2013-08-20 10:53:00,
2013-08-20 05:58:00,70.8,62.5,29.95,ESE,104,0.0,0.0,75,0.00,,---,0.00,VWS V14.01,2013-08-20 10:58:00,
2013-08-20 06:03:00,70.2,62.3,29.95,ESE,104,0.0,0.0,76,0.00,,---,0.00,VWS V14.01,2013-08-20 11:03:00,
2013-08-20 06:08:00,69.8,62.3,29.95,ESE,105,0.0,0.0,77,0.00,,---,0.00,VWS V14.01,2013-08-20 11:08:00,
2013-08-20 06:13:00,69.6,62.4,29.95,ESE,105,0.0,0.0,78,0.00,,---,0.00,VWS V14.01,2013-08-20 11:13:00,
2013-08-20 06:18:00,69.5,62.3,29.96,ESE,105,0.0,0.0,78,0.00,,---,0.00,VWS V14.01,2013-08-20 11:18:00,
2013-08-20 06:23:00,69.3,62.2,29.96,ESE,105,0.0,0.0,78,0.00,,---,0.00,VWS V14.01,2013-08-20 11:23:00,
2013-08-20 06:28:00,68.8,62.4,29.96,ESE,105,0.0,0.0,80,0.00,,---,0.00,VWS V14.01,2013-08-20 11:28:00,
2013-08-20 06:33:00,68.3,61.9,29.96,ESE,105,0.0,0.0,80,0.00,,---,0.00,VWS V14.01,2013-08-20 11:33:00,
2013-08-20 06:38:00,68.1,62.1,29.96,ESE,105,0.0,0.0,81,0.00,,---,0.00,VWS V14.01,2013-08-20 11:38:00,
2013-08-20 06:43:00,68.3,62.2,29.96,ESE,105,0.0,0.0,81,0.00,,---,0.00,VWS V14.01,2013-08-20 11:43:00,
2013-08-20 06:48:00,68.5,62.5,29.97,ESE,104,0.0,0.0,81,0.00,,---,0.00,VWS V14.01,2013-08-20 11:48:00,
2013-08-20 06:53:00,68.4,62.3,29.97,ESE,104,0.0,0.0,81,0.00,,---,0.00,VWS V14.01,2013-08-20 11:53:00,
2013-08-20 06:58:00,68.3,62.2,29.97,ESE,104,0.0,0.0,81,0.00,,---,0.00,VWS V14.01,2013-08-20 11:58:00,
2013-08-20 07:03:00,68.1,62.4,29.97,ESE,105,0.0,0.0,82,0.00,,---,0.00,VWS V14.01,2013-08-20 12:03:00,
2013-08-20 07:08:00,68.1,62.4,29.97,ESE,104,0.0,0.0,82,0.00,,---,0.00,VWS V14.01,2013-08-20 12:08:00,
2013-08-20 07:14:00,68.2,62.5,29.98,ESE,105,0.0,0.0,82,0.00,,---,0.00,VWS V14.01,2013-08-20 12:14:00,
2013-08-20 07:19:00,68.4,62.7,29.98,ESE,105,0.0,0.0,82,0.00,,---,0.00,VWS V14.01,2013-08-20 12:19:00,
2013-08-20 07:24:00,68.7,63.0,29.98,ESE,104,0.0,0.0,82,0.00,,---,0.00,VWS V14.01,2013-08-20 12:24:00,
2013-08-20 07:29:00,69.1,63.4,29.98,ESE,105,0.0,0.0,82,0.00,,---,0.00,VWS V14.01,2013-08-20 12:29:00,
2013-08-20 07:34:00,69.5,63.4,29.98,ESE,105,0.0,0.0,81,0.00,,---,0.00,VWS V14.01,2013-08-20 12:34:00,
2013-08-20 07:39:00,69.8,64.1,29.98,ESE,105,0.0,0.0,82,0.00,,---,0.00,VWS V14.01,2013-08-20 12:39:00,
2013-08-20 07:44:00,69.5,63.8,29.98,ESE,105,0.0,0.0,82,0.00,,---,0.00,VWS V14.01,2013-08-20 12:44:00,
2013-08-20 07:49:00,69.2,63.8,29.98,ESE,105,0.0,0.0,83,0.00,,---,0.00,VWS V14.01,2013-08-20 12:49:00,
2013-08-20 07:54:00,69.4,63.3,29.98,ESE,105,0.0,0.0,81,0.00,,---,0.00,VWS V14.01,2013-08-20 12:54:00,
2013-08-20 07:59:00,70.0,64.6,29.98,ESE,105,0.0,0.0,83,0.00,,---,0.00,VWS V14.01,2013-08-20 12:59:00,
2013-08-20 08:04:00,70.5,63.7,29.98,ESE,105,0.0,0.0,79,0.00,,---,0.00,VWS V14.01,2013-08-20 13:04:00,
2013-08-20 08:09:00,71.3,64.1,29.98,ESE,105,0.0,0.0,78,0.00,,---,0.00,VWS V14.01,2013-08-20 13:09:00,
2013-08-20 08:14:00,72.3,64.7,29.98,ESE,105,0.0,0.0,77,0.00,,---,0.00,VWS V14.01,2013-08-20 13:14:00,
2013-08-20 08:19:00,73.2,65.2,29.98,ESE,105,0.0,0.0,76,0.00,,---,0.00,VWS V14.01,2013-08-20 13:19:00,
2013-08-20 08:24:00,73.9,65.1,29.99,ESE,105,0.0,0.0,74,0.00,,---,0.00,VWS V14.01,2013-08-20 13:24:00,
2013-08-20 08:29:00,74.4,65.2,29.99,ESE,105,0.0,0.0,73,0.00,,---,0.00,VWS V14.01,2013-08-20 13:29:00,
2013-08-20 08:34:00,74.8,64.8,29.99,ESE,116,0.0,0.0,71,0.00,,---,0.00,VWS V14.01,2013-08-20 13:34:00,
2013-08-20 08:39:00,75.2,65.2,29.99,South,169,0.0,1.0,71,0.00,,---,0.00,VWS V14.01,2013-08-20 13:39:00,
2013-08-20 08:44:00,75.5,65.0,29.99,South,180,1.0,4.0,70,0.00,,---,0.00,VWS V14.01,2013-08-20 13:44:00,
2013-08-20 08:49:00,75.8,65.3,29.99,South,181,0.0,0.0,70,0.00,,---,0.00,VWS V14.01,2013-08-20 13:49:00,
2013-08-20 08:54:00,76.6,65.7,29.99,South,175,0.0,2.0,69,0.00,,---,0.00,VWS V14.01,2013-08-20 13:54:00,
2013-08-20 08:59:00,77.0,65.2,29.99,South,176,0.0,2.0,67,0.00,,---,0.00,VWS V14.01,2013-08-20 13:59:00,
2013-08-20 09:04:00,77.3,65.1,29.99,South,178,0.0,2.0,66,0.00,,---,0.00,VWS V14.01,2013-08-20 14:04:00,
2013-08-20 09:09:00,77.5,65.7,30.00,South,177,0.0,0.0,67,0.00,,---,0.00,VWS V14.01,2013-08-20 14:09:00,
2013-08-20 09:15:00,77.8,65.5,30.00,South,171,1.0,4.0,66,0.00,,---,0.00,VWS V14.01,2013-08-20 14:15:00,
2013-08-20 09:20:00,78.0,66.2,30.00,South,171,1.0,2.0,67,0.00,,---,0.00,VWS V14.01,2013-08-20 14:20:00,
2013-08-20 09:25:00,78.3,66.0,30.00,SSE,163,1.0,4.0,66,0.00,,---,0.00,VWS V14.01,2013-08-20 14:25:00,
2013-08-20 09:30:00,78.6,65.9,30.00,SSE,147,0.0,5.0,65,0.00,,---,0.00,VWS V14.01,2013-08-20 14:30:00,
2013-08-20 09:35:00,79.1,65.9,30.00,SE,146,0.0,0.0,64,0.00,,---,0.00,VWS V14.01,2013-08-20 14:35:00,
2013-08-20 09:40:00,79.8,66.6,30.00,SE,144,2.0,3.0,64,0.00,,---,0.00,VWS V14.01,2013-08-20 14:40:00,
2013-08-20 09:45:00,80.3,67.0,30.00,SE,138,3.0,5.0,64,0.00,,---,0.00,VWS V14.01,2013-08-20 14:45:00,
2013-08-20 09:50:00,80.3,67.5,30.00,SE,138,0.0,3.0,65,0.00,,---,0.00,VWS V14.01,2013-08-20 14:50:00,
2013-08-20 09:55:00,79.9,67.5,30.00,SE,136,2.0,4.0,66,0.00,,---,0.00,VWS V14.01,2013-08-20 14:55:00,
2013-08-20 10:00:00,80.0,67.2,30.00,SE,136,0.0,2.0,65,0.00,,---,0.00,VWS V14.01,2013-08-20 15:00:00,
2013-08-20 10:05:00,80.6,66.4,30.00,South,178,0.0,6.0,62,0.00,,---,0.00,VWS V14.01,2013-08-20 15:05:00,
2013-08-20 10:10:00,81.3,66.1,30.00,South,176,2.0,4.0,60,0.00,,---,0.00,VWS V14.01,2013-08-20 15:10:00,
2013-08-20 10:15:00,82.0,66.8,30.00,SSE,160,3.0,4.0,60,0.00,,---,0.00,VWS V14.01,2013-08-20 15:15:00,
2013-08-20 10:20:00,82.7,66.4,30.00,SSE,158,4.0,4.0,58,0.00,,---,0.00,VWS V14.01,2013-08-20 15:20:00,
2013-08-20 10:25:00,83.2,66.4,30.01,SSE,157,2.0,4.0,57,0.00,,---,0.00,VWS V14.01,2013-08-20 15:25:00,
2013-08-20 10:30:00,83.9,66.5,30.01,SSW,192,4.0,6.0,56,0.00,,---,0.00,VWS V14.01,2013-08-20 15:30:00,
2013-08-20 10:35:00,84.1,65.7,30.00,SSW,211,1.0,6.0,54,0.00,,---,0.00,VWS V14.01,2013-08-20 15:35:00,
2013-08-20 10:40:00,84.7,66.2,30.00,South,188,0.0,5.0,54,0.00,,---,0.00,VWS V14.01,2013-08-20 15:40:00,
2013-08-20 10:46:00,85.7,66.1,30.00,SSW,200,1.0,5.0,52,0.00,,---,0.00,VWS V14.01,2013-08-20 15:46:00,
2013-08-20 10:51:00,86.0,65.8,30.00,South,188,0.0,3.0,51,0.00,,---,0.00,VWS V14.01,2013-08-20 15:51:00,
2013-08-20 10:56:00,86.2,66.0,30.00,South,188,3.0,4.0,51,0.00,,---,0.00,VWS V14.01,2013-08-20 15:56:00,
2013-08-20 11:01:00,86.1,64.7,30.00,SSW,202,5.0,8.0,49,0.00,,---,0.00,VWS V14.01,2013-08-20 16:01:00,
2013-08-20 11:06:00,86.4,65.0,30.00,WSW,244,2.0,6.0,49,0.00,,---,0.00,VWS V14.01,2013-08-20 16:06:00,
2013-08-20 11:11:00,87.3,65.8,30.00,SW,224,2.0,4.0,49,0.00,,---,0.00,VWS V14.01,2013-08-20 16:11:00,
2013-08-20 11:16:00,88.1,64.7,30.00,SW,227,2.0,4.0,46,0.00,,---,0.00,VWS V14.01,2013-08-20 16:16:00,
2013-08-20 11:21:00,88.5,65.1,30.00,SW,227,0.0,4.0,46,0.00,,---,0.00,VWS V14.01,2013-08-20 16:21:00,
2013-08-20 11:26:00,89.3,64.6,30.00,WSW,248,1.0,5.0,44,0.00,,---,0.00,VWS V14.01,2013-08-20 16:26:00,
2013-08-20 11:31:00,89.4,63.3,30.00,SSW,202,1.0,7.0,42,0.00,,---,0.00,VWS V14.01,2013-08-20 16:31:00,
2013-08-20 11:36:00,89.3,63.9,30.00,SW,215,7.0,7.0,43,0.00,,---,0.00,VWS V14.01,2013-08-20 16:36:00,
2013-08-20 11:41:00,89.4,64.6,30.00,SW,236,4.0,6.0,44,0.00,,---,0.00,VWS V14.01,2013-08-20 16:41:00,
2013-08-20 11:46:00,89.5,64.1,30.00,SW,221,0.0,4.0,43,0.00,,---,0.00,VWS V14.01,2013-08-20 16:46:00,
2013-08-20 11:51:00,89.4,64.6,30.00,SW,226,6.0,8.0,44,0.00,,---,0.00,VWS V14.01,2013-08-20 16:51:00,
2013-08-20 11:57:00,89.6,65.5,30.00,SW,223,2.0,4.0,45,0.00,,---,0.00,VWS V14.01,2013-08-20 16:57:00,
2013-08-20 12:02:00,90.2,66.0,29.99,SW,216,4.0,7.0,45,0.00,,---,0.00,VWS V14.01,2013-08-20 17:02:00,
2013-08-20 12:07:00,90.0,65.2,29.99,WSW,244,3.0,8.0,44,0.00,,---,0.00,VWS V14.01,2013-08-20 17:07:00,
2013-08-20 12:12:00,90.0,65.8,29.99,WSW,242,0.0,4.0,45,0.00,,---,0.00,VWS V14.01,2013-08-20 17:12:00,
2013-08-20 12:17:00,90.5,65.0,29.99,SW,234,2.0,7.0,43,0.00,,---,0.00,VWS V14.01,2013-08-20 17:17:00,
2013-08-20 12:22:00,91.4,66.4,29.99,SW,234,0.0,2.0,44,0.00,,---,0.00,VWS V14.01,2013-08-20 17:22:00,
2013-08-20 12:27:00,91.2,65.6,29.99,South,184,2.0,8.0,43,0.00,,---,0.00,VWS V14.01,2013-08-20 17:27:00,
2013-08-20 12:32:00,90.4,64.9,29.99,South,169,1.0,5.0,43,0.00,,---,0.00,VWS V14.01,2013-08-20 17:32:00,
2013-08-20 12:37:00,90.5,65.0,29.99,SSE,148,6.0,6.0,43,0.00,,---,0.00,VWS V14.01,2013-08-20 17:37:00,
2013-08-20 12:42:00,90.0,65.2,29.99,SW,214,5.0,5.0,44,0.00,,---,0.00,VWS V14.01,2013-08-20 17:42:00,
2013-08-20 12:47:00,90.3,65.4,29.98,WSW,238,4.0,8.0,44,0.00,,---,0.00,VWS V14.01,2013-08-20 17:47:00,
2013-08-20 12:52:00,90.5,65.0,29.98,SE,126,0.0,5.0,43,0.00,,---,0.00,VWS V14.01,2013-08-20 17:52:00,
2013-08-20 12:57:00,90.6,63.7,29.98,South,188,4.0,7.0,41,0.00,,---,0.00,VWS V14.01,2013-08-20 17:57:00,
2013-08-20 13:02:00,91.5,64.5,29.98,South,186,0.0,1.0,41,0.00,,---,0.00,VWS V14.01,2013-08-20 18:02:00,
2013-08-20 13:07:00,92.2,65.8,29.98,South,184,2.0,2.0,42,0.00,,---,0.00,VWS V14.01,2013-08-20 18:07:00,
2013-08-20 13:12:00,92.5,64.0,29.97,SSE,155,0.0,7.0,39,0.00,,---,0.00,VWS V14.01,2013-08-20 18:12:00,
2013-08-20 13:17:00,92.1,65.0,29.97,South,185,2.0,4.0,41,0.00,,---,0.00,VWS V14.01,2013-08-20 18:17:00,
2013-08-20 13:22:00,92.2,63.0,29.97,SSW,202,2.0,6.0,38,0.00,,---,0.00,VWS V14.01,2013-08-20 18:22:00,
2013-08-20 13:28:00,91.5,63.8,29.97,SE,134,4.0,9.0,40,0.00,,---,0.00,VWS V14.01,2013-08-20 18:28:00,
2013-08-20 13:33:00,90.7,62.4,29.97,SSW,196,1.0,7.0,39,0.00,,---,0.00,VWS V14.01,2013-08-20 18:33:00,
2013-08-20 13:38:00,90.9,62.5,29.97,SSW,200,0.0,0.0,39,0.00,,---,0.00,VWS V14.01,2013-08-20 18:38:00,
2013-08-20 13:43:00,90.5,64.3,29.97,South,180,0.0,3.0,42,0.00,,---,0.00,VWS V14.01,2013-08-20 18:43:00,
2013-08-20 13:48:00,90.2,64.0,29.97,SSE,162,1.0,3.0,42,0.00,,---,0.00,VWS V14.01,2013-08-20 18:48:00,
2013-08-20 13:53:00,90.4,62.8,29.96,ENE,77,2.0,7.0,40,0.00,,---,0.00,VWS V14.01,2013-08-20 18:53:00,
2013-08-20 13:58:00,91.1,63.4,29.96,ESE,114,7.0,8.0,40,0.00,,---,0.00,VWS V14.01,2013-08-20 18:58:00,
2013-08-20 14:03:00,91.3,62.2,29.96,East,80,3.0,7.0,38,0.00,,---,0.00,VWS V14.01,2013-08-20 19:03:00,
2013-08-20 14:08:00,91.5,62.3,29.96,SSE,167,1.0,4.0,38,0.00,,---,0.00,VWS V14.01,2013-08-20 19:08:00,
2013-08-20 14:13:00,91.9,62.7,29.96,SSE,148,2.0,6.0,38,0.00,,---,0.00,VWS V14.01,2013-08-20 19:13:00,
2013-08-20 14:18:00,91.5,62.3,29.96,SE,135,2.0,7.0,38,0.00,,---,0.00,VWS V14.01,2013-08-20 19:18:00,
2013-08-20 14:23:00,91.5,62.3,29.96,SE,136,5.0,5.0,38,0.00,,---,0.00,VWS V14.01,2013-08-20 19:23:00,
2013-08-20 14:28:00,91.3,62.9,29.96,SE,142,5.0,5.0,39,0.00,,---,0.00,VWS V14.01,2013-08-20 19:28:00,
2013-08-20 14:33:00,91.1,62.0,29.95,North,355,0.0,4.0,38,0.00,,---,0.00,VWS V14.01,2013-08-20 19:33:00,
2013-08-20 14:38:00,91.7,61.8,29.95,SE,135,0.0,4.0,37,0.00,,---,0.00,VWS V14.01,2013-08-20 19:38:00,
2013-08-20 14:43:00,92.2,61.4,29.95,SE,142,1.0,4.0,36,0.00,,---,0.00,VWS V14.01,2013-08-20 19:43:00,
2013-08-20 14:48:00,92.5,61.7,29.95,SE,141,1.0,5.0,36,0.00,,---,0.00,VWS V14.01,2013-08-20 19:48:00,
2013-08-20 14:53:00,92.6,61.8,29.94,ESE,114,8.0,8.0,36,0.00,,---,0.00,VWS V14.01,2013-08-20 19:53:00,
2013-08-20 14:59:00,92.5,60.9,29.95,SE,127,5.0,6.0,35,0.00,,---,0.00,VWS V14.01,2013-08-20 19:59:00,
2013-08-20 15:04:00,92.4,60.8,29.95,SE,142,4.0,5.0,35,0.00,,---,0.00,VWS V14.01,2013-08-20 20:04:00,
2013-08-20 15:09:00,92.6,60.2,29.94,SSE,156,5.0,5.0,34,0.00,,---,0.00,VWS V14.01,2013-08-20 20:09:00,
2013-08-20 15:14:00,93.1,60.6,29.94,SSE,159,1.0,5.0,34,0.00,,---,0.00,VWS V14.01,2013-08-20 20:14:00,
2013-08-20 15:19:00,94.0,61.4,29.94,South,173,0.0,3.0,34,0.00,,---,0.00,VWS V14.01,2013-08-20 20:19:00,
2013-08-20 15:24:00,94.1,62.3,29.94,SE,136,2.0,5.0,35,0.00,,---,0.00,VWS V14.01,2013-08-20 20:24:00,
2013-08-20 15:29:00,93.6,61.0,29.94,SE,146,0.0,5.0,34,0.00,,---,0.00,VWS V14.01,2013-08-20 20:29:00,
2013-08-20 15:34:00,93.7,60.3,29.93,SE,146,0.0,0.0,33,0.00,,---,0.00,VWS V14.01,2013-08-20 20:34:00,
2013-08-20 15:39:00,94.1,61.5,29.93,East,101,1.0,5.0,34,0.00,,---,0.00,VWS V14.01,2013-08-20 20:39:00,
2013-08-20 15:44:00,93.7,61.1,29.93,East,101,0.0,2.0,34,0.00,,---,0.00,VWS V14.01,2013-08-20 20:44:00,
2013-08-20 15:49:00,93.8,61.2,29.93,NW,319,0.0,5.0,34,0.00,,---,0.00,VWS V14.01,2013-08-20 20:49:00,
2013-08-20 15:54:00,93.7,61.9,29.93,ESE,103,2.0,4.0,35,0.00,,---,0.00,VWS V14.01,2013-08-20 20:54:00,
2013-08-20 15:59:00,93.5,61.0,29.92,ENE,61,3.0,5.0,34,0.00,,---,0.00,VWS V14.01,2013-08-20 20:59:00,
2013-08-20 16:04:00,93.4,61.7,29.92,East,101,3.0,8.0,35,0.00,,---,0.00,VWS V14.01,2013-08-20 21:04:00,
2013-08-20 16:09:00,93.3,62.4,29.92,SE,128,3.0,7.0,36,0.00,,---,0.00,VWS V14.01,2013-08-20 21:09:00,
2013-08-20 16:14:00,93.1,61.4,29.92,ESE,111,3.0,3.0,35,0.00,,---,0.00,VWS V14.01,2013-08-20 21:14:00,
2013-08-20 16:19:00,92.7,61.1,29.92,ESE,107,2.0,4.0,35,0.00,,---,0.00,VWS V14.01,2013-08-20 21:19:00,
2013-08-20 16:25:00,92.4,61.6,29.92,ESE,107,1.0,2.0,36,0.00,,---,0.00,VWS V14.01,2013-08-20 21:25:00,
2013-08-20 16:30:00,92.6,61.8,29.92,East,81,2.0,8.0,36,0.00,,---,0.00,VWS V14.01,2013-08-20 21:30:00,
2013-08-20 16:35:00,93.1,61.4,29.92,ESE,109,0.0,3.0,35,0.00,,---,0.00,VWS V14.01,2013-08-20 21:35:00,
2013-08-20 16:40:00,93.1,60.6,29.92,East,101,1.0,8.0,34,0.00,,---,0.00,VWS V14.01,2013-08-20 21:40:00,
2013-08-20 16:45:00,93.2,62.3,29.92,ESE,118,3.0,5.0,36,0.00,,---,0.00,VWS V14.01,2013-08-20 21:45:00,
2013-08-20 16:50:00,93.5,62.6,29.92,ESE,117,4.0,7.0,36,0.00,,---,0.00,VWS V14.01,2013-08-20 21:50:00,
2013-08-20 16:55:00,93.6,62.7,29.92,ESE,122,7.0,8.0,36,0.00,,---,0.00,VWS V14.01,2013-08-20 21:55:00,
2013-08-20 17:00:00,93.3,61.6,29.92,ESE,114,7.0,8.0,35,0.00,,---,0.00,VWS V14.01,2013-08-20 22:00:00,
2013-08-20 17:05:00,93.3,61.6,29.91,ENE,72,1.0,6.0,35,0.00,,---,0.00,VWS V14.01,2013-08-20 22:05:00,
2013-08-20 17:10:00,93.2,61.5,29.91,East,96,0.0,7.0,35,0.00,,---,0.00,VWS V14.01,2013-08-20 22:10:00,
2013-08-20 17:15:00,93.3,60.8,29.91,East,88,2.0,5.0,34,0.00,,---,0.00,VWS V14.01,2013-08-20 22:15:00,
2013-08-20 17:20:00,93.4,60.9,29.91,ESE,113,5.0,7.0,34,0.00,,---,0.00,VWS V14.01,2013-08-20 22:20:00,
2013-08-20 17:25:00,93.5,61.0,29.91,East,86,0.0,2.0,34,0.00,,---,0.00,VWS V14.01,2013-08-20 22:25:00,
2013-08-20 17:30:00,93.5,60.1,29.90,East,82,5.0,5.0,33,0.00,,---,0.00,VWS V14.01,2013-08-20 22:30:00,
2013-08-20 17:35:00,93.5,61.0,29.90,East,82,0.0,5.0,34,0.00,,---,0.00,VWS V14.01,2013-08-20 22:35:00,
2013-08-20 17:40:00,93.6,61.0,29.90,East,82,0.0,2.0,34,0.00,,---,0.00,VWS V14.01,2013-08-20 22:40:00,
2013-08-20 17:46:00,93.5,62.6,29.90,East,82,0.0,1.0,36,0.00,,---,0.00,VWS V14.01,2013-08-20 22:46:00,
2013-08-20 17:51:00,93.4,61.7,29.90,East,84,2.0,3.0,35,0.00,,---,0.00,VWS V14.01,2013-08-20 22:51:00,
2013-08-20 17:56:00,93.3,62.4,29.90,East,84,6.0,6.0,36,0.00,,---,0.00,VWS V14.01,2013-08-20 22:56:00,
2013-08-20 18:01:00,93.1,60.6,29.90,East,98,2.0,7.0,34,0.00,,---,0.00,VWS V14.01,2013-08-20 23:01:00,
2013-08-20 18:06:00,92.9,61.2,29.90,ESE,117,4.0,5.0,35,0.00,,---,0.00,VWS V14.01,2013-08-20 23:06:00,
2013-08-20 18:11:00,92.8,61.2,29.90,East,94,0.0,5.0,35,0.00,,---,0.00,VWS V14.01,2013-08-20 23:11:00,
2013-08-20 18:16:00,92.9,61.2,29.90,East,92,2.0,5.0,35,0.00,,---,0.00,VWS V14.01,2013-08-20 23:16:00,
2013-08-20 18:21:00,92.8,62.0,29.90,East,93,0.0,5.0,36,0.00,,---,0.00,VWS V14.01,2013-08-20 23:21:00,
2013-08-20 18:26:00,92.8,62.7,29.90,East,93,2.0,2.0,37,0.00,,---,0.00,VWS V14.01,2013-08-20 23:26:00,
2013-08-20 18:31:00,92.7,61.9,29.90,ESE,107,4.0,7.0,36,0.00,,---,0.00,VWS V14.01,2013-08-20 23:31:00,
2013-08-20 18:36:00,92.3,63.0,29.90,ESE,106,3.0,4.0,38,0.00,,---,0.00,VWS V14.01,2013-08-20 23:36:00,
2013-08-20 18:41:00,91.9,62.7,29.89,ESE,107,2.0,4.0,38,0.00,,---,0.00,VWS V14.01,2013-08-20 23:41:00,
2013-08-20 18:46:00,91.5,63.1,29.89,ESE,106,3.0,4.0,39,0.00,,---,0.00,VWS V14.01,2013-08-20 23:46:00,
2013-08-20 18:51:00,91.3,62.9,29.90,ESE,106,0.0,2.0,39,0.00,,---,0.00,VWS V14.01,2013-08-20 23:51:00,
2013-08-20 18:56:00,91.1,62.7,29.90,ESE,106,1.0,4.0,39,0.00,,---,0.00,VWS V14.01,2013-08-20 23:56:00,
2013-08-20 19:01:00,90.9,63.3,29.90,ESE,106,1.0,2.0,40,0.00,,---,0.00,VWS V14.01,2013-08-21 00:01:00,
2013-08-20 19:07:00,90.8,63.9,29.90,ESE,106,0.0,0.0,41,0.00,,---,0.00,VWS V14.01,2013-08-21 00:07:00,
2013-08-20 19:12:00,90.7,63.8,29.90,ESE,106,0.0,0.0,41,0.00,,---,0.00,VWS V14.01,2013-08-21 00:12:00,
2013-08-20 19:17:00,90.5,64.3,29.90,ESE,106,1.0,3.0,42,0.00,,---,0.00,VWS V14.01,2013-08-21 00:17:00,
2013-08-20 19:22:00,90.3,64.1,29.90,ESE,106,0.0,2.0,42,0.00,,---,0.00,VWS V14.01,2013-08-21 00:22:00,
2013-08-20 19:27:00,90.0,64.5,29.90,ESE,107,1.0,3.0,43,0.00,,---,0.00,VWS V14.01,2013-08-21 00:27:00,
2013-08-20 19:32:00,89.5,63.4,29.90,SE,134,3.0,6.0,42,0.00,,---,0.00,VWS V14.01,2013-08-21 00:32:00,
2013-08-20 19:37:00,89.4,61.9,29.90,SE,135,3.0,6.0,40,0.00,,---,0.00,VWS V14.01,2013-08-21 00:37:00,
2013-08-20 19:42:00,89.6,62.1,29.90,SE,141,2.0,4.0,40,0.00,,---,0.00,VWS V14.01,2013-08-21 00:42:00,
2013-08-20 19:47:00,89.6,62.1,29.90,SE,141,2.0,3.0,40,0.00,,---,0.00,VWS V14.01,2013-08-21 00:47:00,
2013-08-20 19:52:00,89.5,62.0,29.90,SE,141,0.0,3.0,40,0.00,,---,0.00,VWS V14.01,2013-08-21 00:52:00,
2013-08-20 19:57:00,89.3,61.8,29.90,SE,141,0.0,2.0,40,0.00,,---,0.00,VWS V14.01,2013-08-21 00:57:00,
2013-08-20 20:02:00,89.1,62.4,29.90,SE,141,0.0,0.0,41,0.00,,---,0.00,VWS V14.01,2013-08-21 01:02:00,
2013-08-20 20:07:00,88.7,61.3,29.90,SE,146,0.0,4.0,40,0.00,,---,0.00,VWS V14.01,2013-08-21 01:07:00,
2013-08-20 20:12:00,88.5,61.8,29.90,SE,146,0.0,1.0,41,0.00,,---,0.00,VWS V14.01,2013-08-21 01:12:00,
2013-08-20 20:17:00,88.1,63.5,29.90,SE,146,0.0,0.0,44,0.00,,---,0.00,VWS V14.01,2013-08-21 01:17:00,
2013-08-20 20:19:00,87.9,63.9,29.90,SE,146,0.0,0.0,45,0.00,,---,0.00,VWS V14.01,2013-08-21 01:19:00,
2013-08-20 20:25:00,87.3,64.6,29.90,SE,146,0.0,0.0,47,0.00,,---,0.00,VWS V14.01,2013-08-21 01:25:00,
2013-08-20 20:30:00,86.3,64.3,29.90,SE,146,0.0,0.0,48,0.00,,---,0.00,VWS V14.01,2013-08-21 01:30:00,
2013-08-20 20:35:00,85.4,64.7,29.90,SE,146,0.0,0.0,50,0.00,,---,0.00,VWS V14.01,2013-08-21 01:35:00,
2013-08-20 20:40:00,84.6,63.9,29.90,SE,146,0.0,0.0,50,0.00,,---,0.00,VWS V14.01,2013-08-21 01:40:00,
2013-08-20 20:45:00,83.9,64.4,29.91,SE,146,0.0,0.0,52,0.00,,---,0.00,VWS V14.01,2013-08-21 01:45:00,
2013-08-20 20:50:00,83.0,64.1,29.90,SE,146,0.0,0.0,53,0.00,,---,0.00,VWS V14.01,2013-08-21 01:50:00,
2013-08-20 20:55:00,82.5,64.2,29.91,SE,146,0.0,0.0,54,0.00,,---,0.00,VWS V14.01,2013-08-21 01:55:00,
2013-08-20 21:00:00,82.4,64.1,29.91,SE,146,0.0,0.0,54,0.00,,---,0.00,VWS V14.01,2013-08-21 02:00:00,
2013-08-20 21:05:00,82.2,64.4,29.91,SE,146,0.0,0.0,55,0.00,,---,0.00,VWS V14.01,2013-08-21 02:05:00,
2013-08-20 21:10:00,82.1,64.3,29.91,SE,146,0.0,0.0,55,0.00,,---,0.00,VWS V14.01,2013-08-21 02:10:00,
2013-08-20 21:15:00,82.0,64.8,29.91,SE,146,0.0,0.0,56,0.00,,---,0.00,VWS V14.01,2013-08-21 02:15:00,
2013-08-20 21:20:00,81.7,65.0,29.91,SE,146,0.0,0.0,57,0.00,,---,0.00,VWS V14.01,2013-08-21 02:20:00,
2013-08-20 21:25:00,81.2,65.0,29.91,SE,146,0.0,0.0,58,0.00,,---,0.00,VWS V14.01,2013-08-21 02:25:00,
2013-08-20 21:30:00,80.5,64.9,29.92,SE,146,0.0,0.0,59,0.00,,---,0.00,VWS V14.01,2013-08-21 02:30:00,
2013-08-20 21:35:00,79.9,64.8,29.92,SE,146,0.0,0.0,60,0.00,,---,0.00,VWS V14.01,2013-08-21 02:35:00,
2013-08-20 21:41:00,79.5,64.9,29.92,SE,146,0.0,0.0,61,0.00,,---,0.00,VWS V14.01,2013-08-21 02:41:00,
2013-08-20 21:46:00,78.8,64.7,29.92,SE,146,0.0,0.0,62,0.00,,---,0.00,VWS V14.01,2013-08-21 02:46:00,
2013-08-20 21:51:00,78.5,64.9,29.92,SE,146,0.0,0.0,63,0.00,,---,0.00,VWS V14.01,2013-08-21 02:51:00,
2013-08-20 21:56:00,78.0,65.3,29.93,SE,146,0.0,0.0,65,0.00,,---,0.00,VWS V14.01,2013-08-21 02:56:00,
2013-08-20 22:01:00,77.4,64.7,29.93,SE,146,0.0,0.0,65,0.00,,---,0.00,VWS V14.01,2013-08-21 03:01:00,
2013-08-20 22:06:00,77.1,64.9,29.93,SE,146,0.0,0.0,66,0.00,,---,0.00,VWS V14.01,2013-08-21 03:06:00,
2013-08-20 22:11:00,76.8,65.0,29.93,SE,146,0.0,0.0,67,0.00,,---,0.00,VWS V14.01,2013-08-21 03:11:00,
2013-08-20 22:16:00,76.4,65.1,29.93,SE,146,0.0,0.0,68,0.00,,---,0.00,VWS V14.01,2013-08-21 03:16:00,
2013-08-20 22:21:00,76.2,64.9,29.93,SE,146,0.0,0.0,68,0.00,,---,0.00,VWS V14.01,2013-08-21 03:21:00,
2013-08-20 22:26:00,75.9,65.0,29.94,SE,146,0.0,0.0,69,0.00,,---,0.00,VWS V14.01,2013-08-21 03:26:00,
2013-08-20 22:31:00,75.7,64.8,29.94,SE,146,0.0,0.0,69,0.00,,---,0.00,VWS V14.01,2013-08-21 03:31:00,
2013-08-20 22:36:00,75.7,65.6,29.94,SE,146,0.0,0.0,71,0.00,,---,0.00,VWS V14.01,2013-08-21 03:36:00,
2013-08-20 22:41:00,76.3,65.8,29.94,SE,146,0.0,0.0,70,0.00,,---,0.00,VWS V14.01,2013-08-21 03:41:00,
2013-08-20 22:46:00,76.7,65.3,29.94,SE,146,0.0,0.0,68,0.00,,---,0.00,VWS V14.01,2013-08-21 03:46:00,
2013-08-20 22:51:00,76.7,65.8,29.94,SE,146,0.0,0.0,69,0.00,,---,0.00,VWS V14.01,2013-08-21 03:51:00,
2013-08-20 22:57:00,76.7,65.8,29.94,SE,146,0.0,0.0,69,0.00,,---,0.00,VWS V14.01,2013-08-21 03:57:00,
2013-08-20 23:01:00,76.9,65.1,29.94,SE,146,0.0,0.0,67,0.00,,---,0.00,VWS V14.01,2013-08-21 04:01:00,
2013-08-20 23:02:00,77.1,65.3,29.94,SE,146,0.0,0.0,67,0.00,,---,0.00,VWS V14.01,2013-08-21 04:02:00,
2013-08-20 23:05:00,77.4,65.2,29.94,SE,146,0.0,0.0,66,0.00,,---,0.00,VWS V14.01,2013-08-21 04:05:00,
2013-08-20 23:10:00,77.8,65.1,29.94,SE,146,0.0,0.0,65,0.00,,---,0.00,VWS V14.01,2013-08-21 04:10:00,
2013-08-20 23:15:00,78.3,65.6,29.94,SE,146,0.0,0.0,65,0.00,,---,0.00,VWS V14.01,2013-08-21 04:15:00,
2013-08-20 23:20:00,78.8,66.1,29.95,SE,146,0.0,2.0,65,0.00,,---,0.00,VWS V14.01,2013-08-21 04:20:00,
2013-08-20 23:25:00,79.1,65.9,29.94,SE,146,0.0,0.0,64,0.00,,---,0.00,VWS V14.01,2013-08-21 04:25:00,
2013-08-20 23:31:00,79.3,65.6,29.94,SE,146,0.0,0.0,63,0.00,,---,0.00,VWS V14.01,2013-08-21 04:31:00,
2013-08-20 23:36:00,79.3,66.1,29.95,SE,146,0.0,0.0,64,0.00,,---,0.00,VWS V14.01,2013-08-21 04:36:00,
2013-08-20 23:41:00,79.2,66.0,29.95,SE,146,0.0,0.0,64,0.00,,---,0.00,VWS V14.01,2013-08-21 04:41:00,
2013-08-20 23:46:00,79.1,65.9,29.95,SE,146,0.0,0.0,64,0.00,,---,0.00,VWS V14.01,2013-08-21 04:46:00,
2013-08-20 23:51:00,79.0,65.8,29.95,SE,146,0.0,0.0,64,0.00,,---,0.00,VWS V14.01,2013-08-21 04:51:00,
2013-08-20 23:56:00,78.8,65.6,29.95,SE,146,0.0,0.0,64,0.00,,---,0.00,VWS V14.01,2013-08-21 04:56:00,